Location: Newark
(49.1022°N, 20.8503°E)
Time: 08:00:11
(UTC+00:00)

Envisat - Pass Details

Date: 02 October 2020
Orbit: 764 x 766 km, 98.1° (Epoch: 21 October)

Event Time Altitude Azimuth Distance (km) Brightness Sun altitude
Rises 17:05:51 0° 211° (SSW) 3,222 6.6 -9.5°
Reaches altitude 10° 17:08:57 10° 231° (SW) 2,301 6.2 -10.1°
Maximum altitude 17:12:13 17° 272° (W) 1,863 6.3 -10.6°
Drops below altitude 10° 17:15:31 10° 312° (NW) 2,312 6.4 -11.1°
Sets 17:18:39 0° 333° (NNW) 3,244 6.8 -11.6°
